Weather History for Charles City, IA

Change the Weather History Date:

Thursday, December 27, 2012

  Actual Average Record
Temperature  
Mean Temperature 16 °F -  
Max Temperature 23 °F 25 °F 50 °F (2003)
Min Temperature 8 °F 10 °F -25 °F (1950)
Degree Days  
Heating Degree Days 50    
Moisture  
Dew Point 11 °F    
Average Humidity 80    
Maximum Humidity 93    
Minimum Humidity 68    
Precipitation  
Precipitation 0.00 in - - ()
Sea Level Pressure  
Sea Level Pressure 30.15 in    
Wind  
Wind Speed 8 mph (ENE)    
Max Wind Speed 13 mph    
Max Gust Speed -    
Visibility 8 miles    
Events Rain , Snow    
Averages and records for this station are not official NWS values.
T = Trace of Precipitation, MM = Missing Value Source: NWS Daily Summary

Daily Weather History Graph

Daily Weather History Graph

Search for Another Location

Airport:

Trip Planner

Search our weather history database for the weather conditions in past years. The results will help you decide how hot, cold, wet, or windy it might be!

Date:

Astronomy

Dec. 27, 2012 Rise Set
Actual Time 7:41 AM CST 4:42 PM CST
Civil Twilight 7:08 AM CST 5:14 PM CST
Nautical Twilight 6:32 AM CST 5:50 PM CST
Astronomical Twilight 5:58 AM CST 6:25 PM CST
Moon 4:27 PM CST (12/27) 6:51 AM CST (12/27)
Length of Visible Light 10h 06m
Length of Day
9h 01m
Full, 100% of the Moon is Illuminated
Dec 27
Full
Dec 28
Full
Jan 4
Last Quarter
Jan 11
New
Jan 18
First Quarter

Hourly Weather History & Observations

Time (CST) Temp. Windchill Dew Point Humidity Pressure Visibility Wind Dir Wind Speed Gust Speed Precip Events Conditions
12:15 AM 10.4 °F 0.8 °F 3.2 °F 73% 30.20 in 10.0 mi NE 5.8 mph - N/A   Partly Cloudy
12:35 AM 8.6 °F -5.5 °F 3.2 °F 79% 30.19 in 10.0 mi NE 10.4 mph - N/A   Clear
12:55 AM 8.6 °F -3.7 °F 3.2 °F 79% 30.20 in 10.0 mi NE 8.1 mph - N/A   Clear
1:15 AM 10.4 °F 4.0 °F 3.2 °F 73% 30.21 in 10.0 mi NNE 3.5 mph - N/A   Mostly Cloudy
1:35 AM 10.4 °F - 3.2 °F 73% 30.20 in 10.0 mi Calm Calm - N/A   Overcast
1:55 AM 10.4 °F - 3.2 °F 73% 30.21 in 10.0 mi Calm Calm - N/A   Overcast
2:15 AM 8.6 °F -3.7 °F 3.2 °F 79% 30.20 in 10.0 mi NE 8.1 mph - N/A   Partly Cloudy
2:35 AM 8.6 °F -2.6 °F 3.2 °F 79% 30.21 in 10.0 mi NE 6.9 mph - N/A   Clear
2:55 AM 8.6 °F -3.7 °F 3.2 °F 79% 30.20 in 10.0 mi NE 8.1 mph - N/A   Clear
3:15 AM 8.6 °F -4.7 °F 3.2 °F 79% 30.20 in 10.0 mi NE 9.2 mph - N/A   Clear
3:55 AM 8.6 °F -2.6 °F 3.2 °F 79% 30.21 in 10.0 mi NE 6.9 mph - N/A   Scattered Clouds
4:15 AM 8.6 °F -4.7 °F 3.2 °F 79% 30.21 in 10.0 mi NE 9.2 mph - N/A   Partly Cloudy
4:35 AM 8.6 °F -4.7 °F 3.2 °F 79% 30.20 in 10.0 mi NE 9.2 mph - N/A   Clear
4:55 AM 8.6 °F -3.7 °F 1.4 °F 73% 30.19 in 10.0 mi NE 8.1 mph - N/A   Scattered Clouds
5:15 AM 8.6 °F -1.3 °F 3.2 °F 79% 30.19 in 10.0 mi ENE 5.8 mph - N/A   Partly Cloudy
5:35 AM 8.6 °F -1.3 °F 3.2 °F 79% 30.19 in 10.0 mi ENE 5.8 mph - N/A   Clear
5:55 AM 8.6 °F -1.3 °F 3.2 °F 79% 30.20 in 10.0 mi ENE 5.8 mph - N/A   Mostly Cloudy
6:15 AM 8.6 °F 2.0 °F 3.2 °F 79% 30.20 in 10.0 mi NE 3.5 mph - N/A   Overcast
6:35 AM 8.6 °F -2.6 °F 3.2 °F 79% 30.19 in 10.0 mi ENE 6.9 mph - N/A   Scattered Clouds
6:55 AM 8.6 °F -2.6 °F 3.2 °F 79% 30.19 in 10.0 mi NE 6.9 mph - N/A   Clear
7:15 AM 8.6 °F -1.3 °F 1.4 °F 73% 30.19 in 10.0 mi NE 5.8 mph - N/A   Clear
7:35 AM 8.6 °F -4.7 °F 3.2 °F 79% 30.17 in 10.0 mi ENE 9.2 mph - N/A   Clear
7:55 AM 8.6 °F -1.3 °F 3.2 °F 79% 30.17 in 10.0 mi NE 5.8 mph - N/A   Clear
8:15 AM 10.4 °F 4.0 °F 5.0 °F 79% 30.18 in 10.0 mi NE 3.5 mph - N/A   Clear
8:35 AM 10.4 °F 4.0 °F 5.0 °F 79% 30.19 in 10.0 mi NE 3.5 mph - N/A   Clear
8:55 AM 12.2 °F 0.7 °F 6.8 °F 79% 30.18 in 10.0 mi NE 8.1 mph - N/A   Clear
9:15 AM 14.0 °F 3.9 °F 6.8 °F 73% 30.19 in 10.0 mi NE 6.9 mph - N/A   Clear
9:35 AM 15.8 °F 7.2 °F 8.6 °F 73% 30.20 in 10.0 mi ENE 5.8 mph - N/A   Clear
9:55 AM 15.8 °F 5.1 °F 10.4 °F 79% 30.20 in 10.0 mi NE 8.1 mph - N/A   Clear
10:35 AM 21.2 °F 10.9 °F 12.2 °F 68% 30.19 in 10.0 mi East 9.2 mph - N/A   Clear
10:55 AM 21.2 °F 10.1 °F 14.0 °F 74% 30.19 in 10.0 mi East 10.4 mph - N/A   Partly Cloudy
11:15 AM 21.2 °F 11.7 °F 14.0 °F 74% 30.19 in 10.0 mi ESE 8.1 mph - N/A   Mostly Cloudy
11:35 AM 21.2 °F 10.9 °F 14.0 °F 74% 30.18 in 10.0 mi East 9.2 mph - N/A   Mostly Cloudy
11:55 AM 21.2 °F 16.4 °F 14.0 °F 74% 30.18 in 10.0 mi East 3.5 mph - N/A   Mostly Cloudy
12:15 PM 21.2 °F 14.9 °F 14.0 °F 74% 30.18 in 10.0 mi SE 4.6 mph - N/A   Mostly Cloudy
12:35 PM 21.2 °F 13.6 °F 14.0 °F 74% 30.17 in 10.0 mi SE 5.8 mph - N/A   Overcast
12:55 PM 21.2 °F 13.6 °F 14.0 °F 74% 30.16 in 10.0 mi ESE 5.8 mph - N/A   Overcast
1:15 PM 21.2 °F 11.7 °F 14.0 °F 74% 30.15 in 10.0 mi East 8.1 mph - N/A   Mostly Cloudy
1:35 PM 23.0 °F 13.9 °F 14.0 °F 68% 30.14 in 10.0 mi East 8.1 mph - N/A   Partly Cloudy
1:55 PM 23.0 °F 13.1 °F 15.8 °F 74% 30.13 in 10.0 mi East 9.2 mph - N/A   Clear
2:15 PM 23.0 °F 11.7 °F 15.8 °F 74% 30.12 in 5.0 mi East 11.5 mph - N/A   Partly Cloudy
2:35 PM 23.0 °F 12.4 °F 17.6 °F 80% 30.12 in 7.0 mi East 10.4 mph - N/A   Scattered Clouds
2:55 PM 23.0 °F 11.1 °F 17.6 °F 80% 30.11 in 9.0 mi East 12.7 mph - N/A   Mostly Cloudy
3:15 PM 23.0 °F 11.1 °F 17.6 °F 80% 30.11 in 3.0 mi East 12.7 mph - N/A Rain Light Freezing Rain
3:35 PM 23.0 °F 12.4 °F 17.6 °F 80% 30.11 in 3.0 mi East 10.4 mph - N/A Rain Light Freezing Rain
3:55 PM 23.0 °F 11.1 °F 17.6 °F 80% 30.11 in 3.0 mi East 12.7 mph - N/A   Overcast
4:15 PM 21.2 °F 9.5 °F 17.6 °F 86% 30.11 in 1.0 mi East 11.5 mph - N/A Snow Light Snow
4:35 PM 21.2 °F 9.5 °F 17.6 °F 86% 30.10 in 1.5 mi East 11.5 mph - N/A Snow Light Snow
4:55 PM 21.2 °F 9.5 °F 17.6 °F 86% 30.10 in 3.0 mi East 11.5 mph - N/A Rain Light Freezing Rain
5:15 PM 21.2 °F 10.1 °F 17.6 °F 86% 30.10 in 1.5 mi East 10.4 mph - N/A Snow Light Snow
5:35 PM 21.2 °F 9.5 °F 17.6 °F 86% 30.09 in 1.5 mi East 11.5 mph - N/A Snow Light Snow
5:55 PM 21.2 °F 9.5 °F 19.4 °F 93% 30.09 in 1.2 mi East 11.5 mph - N/A Snow Light Snow
6:15 PM 21.2 °F 9.5 °F 19.4 °F 93% 30.10 in 1.2 mi East 11.5 mph - N/A Snow Light Snow
6:35 PM 21.2 °F 9.5 °F 17.6 °F 86% 30.10 in 1.8 mi East 11.5 mph - N/A Snow Light Snow
6:55 PM 21.2 °F 10.1 °F 17.6 °F 86% 30.11 in 1.5 mi East 10.4 mph - N/A Snow Light Snow
7:15 PM 21.2 °F 10.1 °F 17.6 °F 86% 30.10 in 1.2 mi East 10.4 mph - N/A Snow Light Snow
7:35 PM 21.2 °F 10.1 °F 17.6 °F 86% 30.09 in 2.0 mi ENE 10.4 mph - N/A Snow Light Snow
7:55 PM 21.2 °F 10.1 °F 17.6 °F 86% 30.10 in 2.0 mi East 10.4 mph - N/A Snow Light Snow
8:15 PM 21.2 °F 10.9 °F 17.6 °F 86% 30.09 in 6.0 mi ENE 9.2 mph - N/A   Overcast
8:35 PM 21.2 °F 10.1 °F 17.6 °F 86% 30.09 in 10.0 mi ENE 10.4 mph - N/A   Overcast
8:55 PM 21.2 °F 10.1 °F 17.6 °F 86% 30.09 in 10.0 mi East 10.4 mph - N/A   Overcast
9:15 PM 21.2 °F 10.1 °F 17.6 °F 86% 30.08 in 10.0 mi East 10.4 mph - N/A   Overcast
9:35 PM 21.2 °F 10.1 °F 17.6 °F 86% 30.08 in 10.0 mi East 10.4 mph - N/A   Overcast
9:55 PM 21.2 °F 10.1 °F 17.6 °F 86% 30.08 in 10.0 mi East 10.4 mph - N/A   Overcast
10:15 PM 21.2 °F 9.5 °F 17.6 °F 86% 30.08 in 10.0 mi East 11.5 mph - N/A   Overcast
10:35 PM 21.2 °F 11.7 °F 17.6 °F 86% 30.08 in 10.0 mi East 8.1 mph - N/A   Overcast
10:55 PM 21.2 °F 11.7 °F 17.6 °F 86% 30.08 in 10.0 mi East 8.1 mph - N/A   Overcast
11:35 PM 21.2 °F 10.9 °F 17.6 °F 86% 30.08 in 10.0 mi East 9.2 mph - N/A   Overcast
11:55 PM 21.2 °F 10.9 °F 17.6 °F 86% 30.07 in 10.0 mi East 9.2 mph - N/A   Overcast